Weather History for Burlington, CO

Change the Weather History Date:

Monday, October 8, 2012

  Actual Average Record
Temperature  
Mean Temperature 53 °F 54 °F  
Max Temperature 71 °F 69 °F 90 °F (1979)
Min Temperature 34 °F 39 °F 22 °F (1970)
Degree Days  
Heating Degree Days 12    
Growing Degree Days 2 (Base 50)    
Moisture  
Dew Point 26 °F    
Average Humidity 46    
Maximum Humidity 79    
Minimum Humidity 12    
Precipitation  
Precipitation 0.00 in 0.04 in 0.65 in (1993)
Month to date precipitation 0.12 0.32  
Year to date precipitation 10.42 15.61  
Sea Level Pressure  
Sea Level Pressure 29.90 in    
Wind  
Wind Speed 10 mph (SW)    
Max Wind Speed 16 mph    
Max Gust Speed 18 mph    
Visibility 10 miles    
Events      
T = Trace of Precipitation, MM = Missing Value Source: NWS Daily Summary

Daily Weather History Graph

Daily Weather History Graph

Search for Another Location

Airport:

Trip Planner

Search our weather history database for the weather conditions in past years. The results will help you decide how hot, cold, wet, or windy it might be!

Date:

Astronomy

Oct. 08, 2012 Rise Set
Actual Time 6:52 AM MDT 6:19 PM MDT
Civil Twilight 6:25 AM MDT 6:46 PM MDT
Nautical Twilight 5:54 AM MDT 7:17 PM MDT
Astronomical Twilight 5:23 AM MDT 7:48 PM MDT
Moon No Moon Rise 2:08 PM MDT (10/8)
Length of Visible Light 12h 21m
Length of Day
11h 27m
Last Quarter, 46% of the Moon is Illuminated
Oct 8
Last Quarter
Oct 15
New
Oct 21
First Quarter
Oct 29
Full
Nov 6
Last Quarter

Hourly Weather History & Observations

Time (MDT) Temp. Windchill Dew Point Humidity Pressure Visibility Wind Dir Wind Speed Gust Speed Precip Events Conditions
12:53 AM 37.0 °F 29.8 °F 30.9 °F 79% 30.05 in 10.0 mi SW 10.4 mph - N/A   Clear
1:53 AM 35.1 °F 27.9 °F 28.9 °F 78% 30.05 in 10.0 mi SW 9.2 mph - N/A   Clear
2:53 AM 37.0 °F 28.9 °F 28.9 °F 73% 30.01 in 10.0 mi WSW 12.7 mph - N/A   Clear
3:53 AM 35.1 °F 26.9 °F 28.0 °F 76% 30.00 in 10.0 mi WSW 11.5 mph - N/A   Clear
4:53 AM 37.0 °F 28.9 °F 28.0 °F 70% 29.98 in 10.0 mi WSW 12.7 mph - N/A   Clear
5:53 AM 37.0 °F 28.5 °F 28.0 °F 70% 29.98 in 10.0 mi WSW 13.8 mph - N/A   Clear
6:53 AM 36.0 °F 28.5 °F 27.0 °F 70% 30.00 in 10.0 mi West 10.4 mph - N/A   Clear
7:53 AM 43.0 °F 36.4 °F 28.0 °F 56% 30.01 in 10.0 mi WSW 12.7 mph - N/A   Clear
8:53 AM 52.0 °F - 30.0 °F 43% 30.00 in 10.0 mi West 11.5 mph - N/A   Clear
9:53 AM 59.0 °F - 23.0 °F 25% 29.98 in 10.0 mi WSW 16.1 mph - N/A   Clear
10:53 AM 63.0 °F - 21.9 °F 21% 29.94 in 10.0 mi WSW 11.5 mph - N/A   Clear
11:53 AM 66.9 °F - 14.0 °F 13% 29.89 in 10.0 mi Variable 3.5 mph - N/A   Clear
12:53 PM 68.0 °F - 17.1 °F 14% 29.87 in 10.0 mi SSW 6.9 mph - N/A   Clear
1:53 PM 69.1 °F - 14.0 °F 12% 29.84 in 10.0 mi Variable 4.6 mph - N/A   Clear
2:53 PM 70.0 °F - 19.0 °F 14% 29.81 in 10.0 mi South 9.2 mph - N/A   Clear
3:53 PM 70.0 °F - 19.0 °F 14% 29.80 in 10.0 mi SW 8.1 mph 18.4 mph N/A   Clear
4:53 PM 70.0 °F - 17.1 °F 13% 29.79 in 10.0 mi SSW 9.2 mph - N/A   Clear
5:53 PM 64.0 °F - 24.1 °F 22% 29.80 in 10.0 mi South 8.1 mph - N/A   Clear
6:53 PM 53.1 °F - 28.9 °F 40% 29.83 in 10.0 mi South 10.4 mph - N/A   Clear
7:53 PM 50.0 °F - 30.9 °F 48% 29.82 in 10.0 mi South 10.4 mph - N/A   Clear
8:53 PM 48.0 °F - 30.0 °F 50% 29.81 in 10.0 mi South 12.7 mph - N/A   Clear
9:53 PM 45.0 °F 39.7 °F 32.0 °F 60% 29.79 in 10.0 mi South 10.4 mph - N/A   Clear
10:53 PM 44.1 °F 39.0 °F 32.0 °F 63% 29.78 in 10.0 mi South 9.2 mph - N/A   Clear
11:53 PM 41.0 °F 35.2 °F 32.0 °F 70% 29.77 in 10.0 mi SW 9.2 mph - N/A   Clear